TimeCST,TemperatureF,Dew PointF,Humidity,Sea Level PressureIn,VisibilityMPH,Wind Direction,Wind SpeedMPH,Gust SpeedMPH,PrecipitationIn,Events,Conditions,WindDirDegrees,DateUTC
12:52 AM,27.0,21.9,81,29.87,10.0,SSW,9.2,-,N/A,,Overcast,200,2013-02-05 06:52:00
1:52 AM,26.1,21.9,84,29.85,10.0,SSE,5.8,-,N/A,,Clear,150,2013-02-05 07:52:00
2:52 AM,26.1,23.0,88,29.84,10.0,Variable,3.5,-,N/A,,Clear,0,2013-02-05 08:52:00
3:52 AM,21.9,19.0,89,29.83,10.0,ESE,4.6,-,N/A,,Clear,110,2013-02-05 09:52:00
5:52 AM,21.9,19.9,92,29.83,10.0,ESE,5.8,-,N/A,,Scattered Clouds,110,2013-02-05 11:52:00
6:52 AM,23.0,21.0,92,29.85,10.0,West,5.8,-,N/A,,Mostly Cloudy,270,2013-02-05 12:52:00
7:52 AM,36.0,27.0,70,29.87,10.0,NW,9.2,-,N/A,,Clear,320,2013-02-05 13:52:00
8:52 AM,39.0,28.9,67,29.92,10.0,NW,16.1,-,N/A,,Clear,320,2013-02-05 14:52:00
9:52 AM,39.9,28.9,65,29.94,10.0,NNW,17.3,26.5,N/A,,Clear,330,2013-02-05 15:52:00
10:52 AM,42.1,28.9,60,29.98,10.0,NNW,17.3,-,N/A,,Clear,330,2013-02-05 16:52:00
11:52 AM,43.0,28.9,58,30.00,10.0,NW,18.4,-,N/A,,Clear,320,2013-02-05 17:52:00
12:52 PM,44.1,28.9,55,30.01,10.0,NW,19.6,-,N/A,,Clear,320,2013-02-05 18:52:00
1:52 PM,46.0,28.9,51,30.01,10.0,NW,15.0,-,N/A,,Partly Cloudy,320,2013-02-05 19:52:00
2:52 PM,44.1,28.0,53,30.01,10.0,NNW,13.8,-,N/A,,Scattered Clouds,330,2013-02-05 20:52:00
3:52 PM,46.0,26.1,46,30.01,10.0,NW,17.3,-,N/A,,Clear,320,2013-02-05 21:52:00
4:52 PM,42.8,28.4,57,30.00,10.0,NNW,11.5,-,N/A,,Partly Cloudy,340,2013-02-05 22:52:00
5:52 PM,37.0,28.0,70,30.06,10.0,North,9.2,-,N/A,,Clear,360,2013-02-05 23:52:00
6:52 PM,34.0,27.0,75,30.08,10.0,NNE,4.6,-,N/A,,Clear,20,2013-02-06 00:52:00
7:52 PM,32.0,26.1,79,30.09,10.0,Calm,Calm,-,N/A,,Clear,0,2013-02-06 01:52:00
8:52 PM,25.0,23.0,92,30.10,8.0,Calm,Calm,-,N/A,,Clear,0,2013-02-06 02:52:00
9:52 PM,24.1,21.9,91,30.10,10.0,Calm,Calm,-,N/A,,Clear,0,2013-02-06 03:52:00
10:52 PM,24.1,23.0,96,30.10,5.0,Calm,Calm,-,N/A,,Clear,0,2013-02-06 04:52:00
11:52 PM,25.0,23.0,92,30.09,6.0,ESE,5.8,-,N/A,,Clear,110,2013-02-06 05:52:00